Weather History for Ogallala, NE

Change the Weather History Date:

Sunday, August 17, 2014

  Actual Average Record
Temperature  
Mean Temperature 78 °F -  
Max Temperature 96 °F 88 °F 99 °F (1959)
Min Temperature 60 °F 58 °F 43 °F (2012)
Cooling Degree Days 12    
Growing Degree Days 28 (Base 50)    
Moisture  
Dew Point 58 °F    
Average Humidity 64    
Maximum Humidity 96    
Minimum Humidity 13    
Precipitation  
Precipitation 0.00 in - - ()
Sea Level Pressure  
Sea Level Pressure 29.99 in    
Wind  
Wind Speed 5 mph (ESE)    
Max Wind Speed 21 mph    
Max Gust Speed 29 mph    
Visibility 10 miles    
Events      
Averages and records for this station are not official NWS values.
T = Trace of Precipitation, MM = Missing Value Source: NWS Daily Summary

Daily Weather History Graph

Daily Weather History Graph

Search for Another Location

Airport:

Trip Planner

Search our weather history database for the weather conditions in past years. The results will help you decide how hot, cold, wet, or windy it might be!

Date:

Astronomy

Aug. 17, 2014 Rise Set
Actual Time 5:58 AM MDT 7:42 PM MDT
Civil Twilight 5:29 AM MDT 8:12 PM MDT
Nautical Twilight 4:53 AM MDT 8:47 PM MDT
Astronomical Twilight 4:15 AM MDT 9:25 PM MDT
Moon No Moon Rise 1:50 PM MDT (8/17)
Length of Visible Light 14h 42m
Length of Day
13h 44m
Waning Gibbous, 48% of the Moon is Illuminated
Aug 17
Waning Gibbous
Aug 25
New
Sep 2
First Quarter
Sep 8
Full
Sep 15
Last Quarter

Hourly Weather History & Observations

Time (MDT) Temp. Heat Index Dew Point Humidity Pressure Visibility Wind Dir Wind Speed Gust Speed Precip Events Conditions
12:15 AM 66.4 °F - 60.6 °F 82% 30.04 in 10.0 mi East 4.6 mph - N/A   Clear
12:35 AM 65.7 °F - 61.0 °F 85% 30.04 in 10.0 mi Calm Calm - N/A   Clear
12:55 AM 65.3 °F - 61.2 °F 86% 30.05 in 10.0 mi Calm Calm - N/A   Clear
1:15 AM 65.1 °F - 60.4 °F 85% 30.04 in 10.0 mi ENE 4.6 mph - N/A   Clear
1:35 AM 65.5 °F - 60.4 °F 84% 30.04 in 10.0 mi East 5.8 mph - N/A   Clear
1:55 AM 64.4 °F - 59.9 °F 85% 30.04 in 10.0 mi ENE 3.5 mph - N/A   Clear
2:15 AM 64.4 °F - 59.7 °F 85% 30.04 in 10.0 mi Calm Calm - N/A   Clear
2:35 AM 63.7 °F - 59.4 °F 86% 30.03 in 10.0 mi East 5.8 mph - N/A   Clear
2:55 AM 63.1 °F - 59.9 °F 89% 30.03 in 10.0 mi East 5.8 mph - N/A   Clear
3:15 AM 63.9 °F - 60.1 °F 87% 30.03 in 10.0 mi East 3.5 mph - N/A   Clear
3:35 AM 63.0 °F - 60.1 °F 90% 30.03 in 10.0 mi East 3.5 mph - N/A   Clear
3:55 AM 62.6 °F - 59.9 °F 91% 30.04 in 10.0 mi Calm Calm - N/A   Clear
4:15 AM 60.8 °F - 59.2 °F 94% 30.04 in 10.0 mi Calm Calm - N/A   Clear
4:35 AM 61.7 °F - 59.2 °F 91% 30.04 in 10.0 mi ENE 3.5 mph - N/A   Clear
4:55 AM 60.8 °F - 59.0 °F 94% 30.04 in 10.0 mi ENE 4.6 mph - N/A   Clear
5:15 AM 60.1 °F - 58.5 °F 94% 30.04 in 10.0 mi ENE 3.5 mph - N/A   Clear
5:35 AM 60.4 °F - 58.8 °F 94% 30.04 in 10.0 mi Calm Calm - N/A   Clear
5:55 AM 60.8 °F - 59.2 °F 94% 30.04 in 10.0 mi Calm Calm - N/A   Clear
6:15 AM 60.6 °F - 59.2 °F 95% 30.04 in 10.0 mi East 3.5 mph - N/A   Clear
6:35 AM 60.8 °F - 59.7 °F 96% 30.04 in 7.0 mi Calm Calm - N/A   Clear
6:55 AM 62.1 °F - 60.6 °F 95% 30.03 in 10.0 mi East 3.5 mph - N/A   Clear
7:15 AM 64.2 °F - 61.7 °F 91% 30.03 in 10.0 mi East 3.5 mph - N/A   Clear
7:35 AM 66.6 °F - 62.8 °F 88% 30.03 in 10.0 mi East 3.5 mph - N/A   Clear
7:55 AM 68.5 °F - 63.3 °F 83% 30.03 in 10.0 mi East 4.6 mph - N/A   Clear
8:15 AM 70.9 °F - 63.7 °F 78% 30.03 in 10.0 mi East 3.5 mph - N/A   Clear
8:35 AM 72.5 °F - 64.2 °F 75% 30.03 in 10.0 mi East 5.8 mph - N/A   Clear
8:55 AM 74.3 °F - 64.9 °F 72% 30.03 in 10.0 mi ESE 3.5 mph - N/A   Clear
9:15 AM 77.4 °F - 63.0 °F 61% 30.03 in 10.0 mi South 8.1 mph - N/A   Clear
9:35 AM 79.2 °F - 62.2 °F 56% 30.02 in 10.0 mi SE 9.2 mph - N/A   Clear
10:15 AM 81.3 °F 82.1 °F 60.8 °F 50% 30.02 in 10.0 mi SSE 8.1 mph - N/A   Clear
10:35 AM 82.9 °F 83.5 °F 61.2 °F 48% 30.03 in 10.0 mi South 6.9 mph - N/A   Clear
10:55 AM 83.3 °F 83.5 °F 60.6 °F 46% 30.03 in 10.0 mi South 5.8 mph - N/A   Clear
11:15 AM 85.3 °F 85.2 °F 60.6 °F 43% 30.02 in 10.0 mi SSW 8.1 mph - N/A   Clear
11:35 AM 85.1 °F 85.9 °F 63.0 °F 47% 30.02 in 10.0 mi WSW 8.1 mph - N/A   Clear
11:55 AM 84.4 °F 85.6 °F 63.7 °F 50% 30.02 in 10.0 mi SW 8.1 mph - N/A   Clear
12:15 PM 86.9 °F 87.0 °F 61.0 °F 42% 30.00 in 10.0 mi South 4.6 mph - N/A   Clear
12:35 PM 88.3 °F 87.8 °F 59.5 °F 38% 30.00 in 10.0 mi South 8.1 mph - N/A   Clear
12:55 PM 89.1 °F 89.3 °F 61.5 °F 40% 29.99 in 10.0 mi SW 8.1 mph - N/A   Clear
1:15 PM 89.2 °F 89.6 °F 61.7 °F 40% 29.99 in 10.0 mi SW 5.8 mph - N/A   Clear
1:35 PM 90.0 °F 88.3 °F 56.7 °F 32% 29.99 in 10.0 mi SW 3.5 mph - N/A   Clear
1:55 PM 91.2 °F 89.6 °F 56.7 °F 31% 29.98 in 10.0 mi SSW 6.9 mph - N/A   Clear
2:15 PM 91.6 °F 90.1 °F 57.0 °F 31% 29.97 in 10.0 mi South 8.1 mph - N/A   Clear
2:35 PM 92.5 °F 91.0 °F 56.5 °F 30% 29.96 in 10.0 mi South 3.5 mph - N/A   Clear
2:55 PM 92.7 °F 90.9 °F 55.8 °F 29% 29.95 in 10.0 mi South 9.2 mph - N/A   Clear
3:15 PM 91.6 °F 90.1 °F 56.7 °F 31% 29.94 in 10.0 mi WSW 6.9 mph - N/A   Clear
3:35 PM 92.3 °F 90.5 °F 55.4 °F 29% 29.93 in 10.0 mi West 3.5 mph - N/A   Clear
3:55 PM 91.8 °F 90.9 °F 59.2 °F 33% 29.92 in 10.0 mi West 10.4 mph 16.1 mph N/A   Clear
4:15 PM 93.0 °F - 51.8 °F 25% 29.91 in 10.0 mi West 4.6 mph - N/A   Clear
4:35 PM 93.7 °F - 43.7 °F 18% 29.89 in 10.0 mi NW 6.9 mph 16.1 mph N/A   Clear
4:55 PM 95.7 °F - 38.1 °F 13% 29.89 in 10.0 mi NW 11.5 mph 17.3 mph N/A   Clear
5:15 PM 95.0 °F - 35.8 °F 13% 29.89 in 10.0 mi NW 17.3 mph 23.0 mph N/A   Clear
5:35 PM 94.5 °F - 35.4 °F 13% 29.88 in 10.0 mi NNW 17.3 mph 24.2 mph N/A   Clear
5:55 PM 93.6 °F - 35.2 °F 13% 29.88 in 10.0 mi NNW 18.4 mph 23.0 mph N/A   Clear
6:15 PM 92.7 °F - 37.0 °F 14% 29.88 in 10.0 mi NNW 12.7 mph 17.3 mph N/A   Clear
6:35 PM 91.4 °F - 39.6 °F 16% 29.89 in 10.0 mi NE 20.7 mph 24.2 mph N/A   Clear
6:55 PM 81.3 °F 81.3 °F 57.6 °F 44% 29.90 in 10.0 mi ENE 18.4 mph 24.2 mph N/A   Clear
7:15 PM 75.9 °F - 59.9 °F 57% 29.93 in 10.0 mi ENE 16.1 mph 28.8 mph N/A   Clear
7:35 PM 73.4 °F - 61.0 °F 65% 29.94 in 10.0 mi East 13.8 mph 21.9 mph N/A   Clear
7:55 PM 72.1 °F - 62.6 °F 72% 29.94 in 10.0 mi East 12.7 mph 17.3 mph N/A   Clear
8:15 PM 70.9 °F - 62.6 °F 75% 29.94 in 10.0 mi East 12.7 mph 18.4 mph N/A   Clear
8:35 PM 69.8 °F - 61.7 °F 75% 29.95 in 10.0 mi East 8.1 mph - N/A   Clear
8:55 PM 68.0 °F - 61.0 °F 78% 29.97 in 10.0 mi East 11.5 mph - N/A   Clear
9:15 PM 67.3 °F - 59.9 °F 77% 29.99 in 10.0 mi East 13.8 mph 18.4 mph N/A   Clear
9:35 PM 65.8 °F - 60.3 °F 82% 29.99 in 10.0 mi East 9.2 mph - N/A   Clear
9:55 PM 65.3 °F - 59.9 °F 83% 30.00 in 10.0 mi East 10.4 mph - N/A   Clear
10:15 PM 64.2 °F - 59.9 °F 86% 30.00 in 10.0 mi East 8.1 mph - N/A   Clear
10:35 PM 63.1 °F - 59.4 °F 87% 30.00 in 10.0 mi East 6.9 mph - N/A   Clear
10:55 PM 63.1 °F - 58.3 °F 84% 30.00 in 10.0 mi East 6.9 mph - N/A   Clear
11:15 PM 63.0 °F - 57.2 °F 81% 30.00 in 10.0 mi ESE 3.5 mph - N/A   Clear
11:35 PM 62.6 °F - 56.5 °F 80% 30.01 in 10.0 mi Calm Calm - N/A   Clear
11:55 PM 61.3 °F - 56.5 °F 84% 30.01 in 10.0 mi Calm Calm - N/A   Clear